User: anonymous   Login
Location: Hancock Field Station
(44.9202°N, 120.4259°W)
Time: 08:46:36
(UTC-08:00)
Language:

Nadezhda 4 Rocket - Orbit

View from above orbital plane
View from above orbital plane
View from above satellite
View from above satellite

Ground track
Ground track

The orbit data is extracted from the following two-line orbital elements,

1 23180U 94041B   17352.04577229  .00000133  00000-0  11688-3 0  9990
2 23180  82.9445 154.2213 0030033  70.1305  69.1929 13.77951352178220
Epoch (UTC): 18 December 2017 01:05:54
Eccentricity: 0.0030033
inclination: 82.9445°
perigee height: 949 km
apogee height: 993 km
right ascension of ascending node: 154.2213°
argument of perigee: 70.1305°
revolutions per day: 13.77951352
mean anomaly at epoch: 69.1929°
orbit number at epoch: 17822

The dashed part of the orbit path shows where the satellite is in the earth's shadow,  

DLR